Weather in Korelichi

Belarus     53°34′14″N   26°08′21″E
temp.,
°C
wind,
m/s
gust,
m/s
humid.,
%
clouds,
%
prec.,
mm/h
press.,
hPa
HPBL,
m
20 september, mon
mon2000:00+6nne5996100 0.2 1011596
03:00+5nne5895100 0.4 1012583
06:00+4nne5997100 0.3 1012558
09:00+4n5997100 0.4 1013703
12:00+4n5795100 0.1 1014812
15:00+4n5797100 0.4 1014737
18:00+3n5897100 0.3 1015563
21:00+2nnw5997100 1.1 1016445
21 september, tue
tue2100:00+3nnw5997100 2.3 1016590
03:00+3nnw51097100 3.4 1016582
06:00+3nnw61097100 0.5 1016622
09:00+3nnw61097100 1.2 1017633
12:00+4nnw61097100 0.4 1018712
15:00+5nnw61095100 0.5 1019806
18:00+5nnw61093100 0.0 1019862
21:00+5nw51193100 0.0 1020813
22 september, wed
wed2200:00+5nnw5993100 0.0 1019825
03:00+5nnw5896100 0.1 1019829
06:00+5nnw5997100 0.3 1018865
09:00+5nnw4795100 0.5 1018996
12:00+5n5792100 0.2 1019784
15:00+5nnw5893100 0.2 1019710
18:00+6nnw4792100 0.1 1018878
21:00+5nnw4794100 0.1 1019830
23 september, thu
thu2300:00+5nnw3595100 0.0 1018653
03:00+5nw3696100 0.4 1016369
06:00+5wnw3794100 0.1 1015319
09:00+6w3691100 0.1 1014278
12:00+9w4574100 0.0 1013631
15:00+11wsw5762100 0.0 10101135
18:00+11sw5975100 0.0 1008647
21:00+10ssw71379100 0.0 1004527
24 september, fri
fri2400:00+11sw71494100 2.5 1001804
03:00+10sw61396100 6.3 998840
06:00+9sw71494100 4.3 996934
09:00+10w71291100 7.3 996784
12:00+11wsw61187100 0.1 9971022
15:00+11w8127881 0.7 998977
18:00+11w8148028 0.3 998981
21:00+10w71488100 0.3 1001618